| time (UTC) | temp F | wind direction | speed knots | gust knots | rain 1hr in | rain 24hr in | rain mn in | humidity % | barometer mb |
| 20260504050253 | 54 | 225 | 0.9 | 4.3 | 0.00 | 0.00 | 0.00 | 64 | 1012.5 |
| 20260504045750 | 54 | 193 | 1.7 | 5.2 | 0.00 | 0.00 | 0.00 | 65 | 1012.3 |
| 20260504045245 | 54 | 258 | 2.6 | 5.2 | 0.00 | 0.00 | 0.00 | 64 | 1012.3 |
| 20260504044743 | 55 | 188 | 2.6 | 2.6 | 0.00 | 0.00 | 0.00 | 63 | 1012.4 |
| 20260504044240 | 55 | 210 | 3.5 | 6.1 | 0.00 | 0.00 | 0.00 | 63 | 1012.6 |
| 20260504043737 | 55 | 188 | 4.3 | 6.1 | 0.00 | 0.00 | 0.00 | 63 | 1012.5 |
| 20260504043234 | 55 | 206 | 5.2 | 6.1 | 0.00 | 0.00 | 0.00 | 63 | 1012.6 |
| 20260504042732 | 55 | 204 | 3.5 | 4.3 | 0.00 | 0.00 | 0.00 | 64 | 1012.4 |
| 20260504042228 | 54 | 180 | 3.5 | 4.3 | 0.00 | 0.00 | 0.00 | 63 | 1012.3 |
| 20260504041724 | 54 | 185 | 3.5 | 6.1 | 0.00 | 0.00 | 0.00 | 63 | 1012.5 |
| 20260504041220 | 55 | 218 | 2.6 | 4.3 | 0.00 | 0.00 | 0.00 | 63 | 1012.6 |
| 20260504040717 | 55 | 223 | 4.3 | 5.2 | 0.00 | 0.00 | 0.00 | 62 | 1012.8 |
| 20260504040214 | 55 | 179 | 3.5 | 5.2 | 0.00 | 0.00 | 0.00 | 63 | 1012.8 |
| 20260504035710 | 55 | 205 | 2.6 | 6.1 | 0.00 | 0.00 | 0.00 | 63 | 1012.8 |
| 20260504035208 | 55 | 210 | 5.2 | 6.1 | 0.00 | 0.00 | 0.00 | 62 | 1013.0 |
| 20260504034705 | 54 | 213 | 2.6 | 5.2 | 0.00 | 0.00 | 0.00 | 63 | 1012.8 |
| 20260504034202 | 54 | 180 | 2.6 | 6.1 | 0.00 | 0.00 | 0.00 | 63 | 1012.8 |
| 20260504033700 | 54 | 177 | 3.5 | 4.3 | 0.00 | 0.00 | 0.00 | 63 | 1013.1 |
| 20260504033156 | 54 | 228 | 3.5 | 4.3 | 0.00 | 0.00 | 0.00 | 64 | 1013.0 |
| 20260504032653 | 54 | 207 | 2.6 | 5.2 | 0.00 | 0.00 | 0.00 | 65 | 1012.9 |
| 20260504032151 | 54 | 165 | 2.6 | 4.3 | 0.00 | 0.00 | 0.00 | 64 | 1013.0 |
| 20260504031647 | 54 | 158 | 2.6 | 2.6 | 0.00 | 0.00 | 0.00 | 64 | 1013.2 |
| 20260504031144 | 54 | 198 | 1.7 | 2.6 | 0.00 | 0.00 | 0.00 | 64 | 1013.1 |
| 20260504030640 | 54 | 162 | 0.9 | 2.6 | 0.00 | 0.00 | 0.00 | 65 | 1013.4 |
| 20260504030137 | 54 | 175 | 0.9 | 2.6 | 0.00 | 0.00 | 0.00 | 64 | 1013.3 |
| 20260504025634 | 54 | 192 | 0.9 | 0.9 | 0.00 | 0.00 | 0.00 | 64 | 1013.3 |
| 20260504025131 | 54 | 171 | 0.9 | 2.6 | 0.00 | 0.00 | 0.00 | 64 | 1013.3 |
| 20260504024628 | 54 | 164 | 0.9 | 4.3 | 0.00 | 0.00 | 0.00 | 64 | 1013.5 |
| 20260504024125 | 54 | 158 | 1.7 | 1.7 | 0.00 | 0.00 | 0.00 | 64 | 1013.4 |
| 20260504023621 | 54 | 157 | 0.9 | 1.7 | 0.00 | 0.00 | 0.00 | 63 | 1013.5 |
| 20260504023117 | 54 | 139 | 1.7 | 1.7 | 0.00 | 0.00 | 0.00 | 63 | 1013.5 |
| 20260504022614 | 54 | 104 | 0.9 | 0.9 | 0.00 | 0.00 | 0.00 | 62 | 1013.4 |
| 20260504022110 | 54 | 141 | 0.9 | 1.7 | 0.00 | 0.00 | 0.00 | 62 | 1013.3 |
| 20260504021608 | 54 | 184 | 1.7 | 1.7 | 0.00 | 0.00 | 0.00 | 63 | 1013.5 |
| 20260504021104 | 54 | 206 | 0.0 | 0.9 | 0.00 | 0.00 | 0.00 | 63 | 1013.4 |
| 20260504020601 | 53 | 178 | 1.7 | 1.7 | 0.00 | 0.00 | 0.00 | 63 | 1013.5 |
| 20260504020057 | 54 | 209 | 0.0 | 0.9 | 0.00 | 0.00 | 0.00 | 64 | 1013.4 |
| 20260504015554 | 53 | 319 | 0.0 | 0.9 | 0.00 | 0.00 | 0.00 | 64 | 1013.6 |
| 20260504015050 | 53 | 357 | 0.0 | 0.0 | 0.00 | 0.00 | 0.00 | 63 | 1013.3 |
| 20260504014546 | 54 | 357 | 0.0 | 0.0 | 0.00 | 0.00 | 0.00 | 61 | 1013.6 |
| 20260504014044 | 55 | 357 | 0.0 | 0.9 | 0.00 | 0.00 | 0.00 | 60 | 1013.6 |
| 20260504013541 | 55 | 357 | 0.0 | 0.0 | 0.00 | 0.00 | 0.00 | 60 | 1013.7 |
| 20260504013038 | 55 | 357 | 0.0 | 0.0 | 0.00 | 0.00 | 0.00 | 59 | 1013.6 |
| 20260504012536 | 55 | 353 | 0.0 | 0.9 | 0.00 | 0.00 | 0.00 | 58 | 1013.7 |
| 20260504012033 | 56 | 355 | 0.0 | 0.0 | 0.00 | 0.00 | 0.00 | 59 | 1013.5 |
| 20260504011530 | 56 | 3 | 0.0 | 0.0 | 0.00 | 0.00 | 0.00 | 57 | 1013.3 |
| 20260504011026 | 57 | 349 | 0.0 | 0.0 | 0.00 | 0.00 | 0.00 | 56 | 1013.3 |
| 20260504010522 | 57 | 318 | 0.0 | 0.0 | 0.00 | 0.00 | 0.00 | 55 | 1013.2 |
| 20260504010018 | 57 | 229 | 0.0 | 0.9 | 0.00 | 0.00 | 0.00 | 55 | 1013.2 |
| 20260504005515 | 58 | 236 | 0.9 | 0.9 | 0.00 | 0.00 | 0.00 | 54 | 1013.0 |
| 20260504005012 | 58 | 233 | 0.9 | 1.7 | 0.00 | 0.00 | 0.00 | 53 | 1013.1 |
| 20260504004510 | 58 | 257 | 3.5 | 2.6 | 0.00 | 0.00 | 0.00 | 52 | 1013.1 |
| 20260504004007 | 58 | 231 | 2.6 | 2.6 | 0.00 | 0.00 | 0.00 | 53 | 1012.8 |
| 20260504003503 | 58 | 239 | 2.6 | 2.6 | 0.00 | 0.00 | 0.00 | 52 | 1012.6 |
| 20260504003000 | 58 | 242 | 1.7 | 2.6 | 0.00 | 0.00 | 0.00 | 52 | 1012.8 |
| 20260504002457 | 59 | 231 | 1.7 | 4.3 | 0.00 | 0.00 | 0.00 | 52 | 1012.6 |
| 20260504001954 | 59 | 251 | 2.6 | 6.1 | 0.00 | 0.00 | 0.00 | 51 | 1012.8 |
| 20260504001451 | 59 | 229 | 5.2 | 5.2 | 0.00 | 0.00 | 0.00 | 50 | 1012.8 |
| 20260504000948 | 60 | 193 | 2.6 | 2.6 | 0.00 | 0.00 | 0.00 | 49 | 1012.5 |
| 20260504000445 | 60 | 216 | 2.6 | 4.3 | 0.00 | 0.00 | 0.00 | 48 | 1012.7 |
| 20260503235942 | 60 | 238 | 6.1 | 7.8 | 0.00 | 0.00 | 0.00 | 47 | 1012.7 |
| 20260503235440 | 60 | 183 | 3.5 | 2.6 | 0.00 | 0.00 | 0.00 | 48 | 1012.7 |
| 20260503234937 | 61 | 240 | 3.5 | 4.3 | 0.00 | 0.00 | 0.00 | 48 | 1012.6 |
| 20260503234435 | 61 | 253 | 5.2 | 8.7 | 0.00 | 0.00 | 0.00 | 46 | 1012.7 |
| 20260503233933 | 61 | 217 | 4.3 | 11.3 | 0.00 | 0.00 | 0.00 | 46 | 1012.6 |
| 20260503233429 | 61 | 270 | 6.1 | 7.0 | 0.00 | 0.00 | 0.00 | 45 | 1012.7 |
| 20260503232925 | 62 | 242 | 4.3 | 7.0 | 0.00 | 0.00 | 0.00 | 45 | 1012.5 |
| 20260503232422 | 62 | 227 | 7.0 | 9.6 | 0.00 | 0.00 | 0.00 | 43 | 1012.5 |
| 20260503231920 | 62 | 258 | 5.2 | 7.0 | 0.00 | 0.00 | 0.00 | 44 | 1012.8 |
| 20260503231417 | 62 | 255 | 3.5 | 4.3 | 0.00 | 0.00 | 0.00 | 44 | 1013.0 |
| 20260503230914 | 62 | 231 | 2.6 | 6.1 | 0.00 | 0.00 | 0.00 | 44 | 1013.2 |
| 20260503230410 | 63 | 216 | 7.8 | 11.3 | 0.00 | 0.00 | 0.00 | 42 | 1013.1 |
| 20260503225908 | 62 | 250 | 4.3 | 6.1 | 0.00 | 0.00 | 0.00 | 43 | 1013.5 |
| 20260503225404 | 62 | 266 | 3.5 | 5.2 | 0.00 | 0.00 | 0.00 | 44 | 1013.4 |
| 20260503224900 | 62 | 212 | 4.3 | 5.2 | 0.00 | 0.00 | 0.00 | 44 | 1013.4 |
| 20260503224357 | 61 | 240 | 2.6 | 5.2 | 0.00 | 0.00 | 0.00 | 44 | 1013.4 |
| 20260503223855 | 61 | 240 | 3.5 | 2.6 | 0.00 | 0.00 | 0.00 | 44 | 1013.6 |
| 20260503223353 | 62 | 237 | 6.1 | 8.7 | 0.00 | 0.00 | 0.00 | 42 | 1013.7 |
| 20260503222848 | 62 | 254 | 7.8 | 11.3 | 0.00 | 0.00 | 0.00 | 41 | 1013.7 |
| 20260503222347 | 62 | 277 | 4.3 | 7.0 | 0.00 | 0.00 | 0.00 | 43 | 1013.9 |
| 20260503221844 | 63 | 211 | 7.8 | 7.8 | 0.00 | 0.00 | 0.00 | 41 | 1013.8 |
| 20260503221343 | 63 | 246 | 3.5 | 7.8 | 0.00 | 0.00 | 0.00 | 42 | 1013.8 |
| 20260503220838 | 63 | 254 | 6.1 | 7.8 | 0.00 | 0.00 | 0.00 | 42 | 1013.8 |
| 20260503220336 | 63 | 245 | 7.0 | 8.7 | 0.00 | 0.00 | 0.00 | 42 | 1014.0 |
| 20260503215832 | 63 | 248 | 4.3 | 7.8 | 0.00 | 0.00 | 0.00 | 42 | 1014.1 |
| 20260503215330 | 63 | 240 | 6.1 | 12.2 | 0.00 | 0.00 | 0.00 | 41 | 1014.1 |
| 20260503214827 | 64 | 191 | 7.0 | 7.8 | 0.00 | 0.00 | 0.00 | 41 | 1014.1 |
| 20260503214324 | 63 | 231 | 8.7 | 8.7 | 0.00 | 0.00 | 0.00 | 40 | 1014.3 |
| 20260503213822 | 63 | 206 | 7.0 | 9.6 | 0.00 | 0.00 | 0.00 | 39 | 1014.3 |
| 20260503213319 | 63 | 255 | 4.3 | 8.7 | 0.00 | 0.00 | 0.00 | 41 | 1014.3 |
| 20260503212816 | 64 | 250 | 7.0 | 9.6 | 0.00 | 0.00 | 0.00 | 39 | 1014.4 |
| 20260503212314 | 63 | 247 | 4.3 | 7.8 | 0.00 | 0.00 | 0.00 | 41 | 1014.0 |
| 20260503211811 | 62 | 225 | 6.1 | 9.6 | 0.00 | 0.00 | 0.00 | 40 | 1014.2 |
| 20260503211308 | 64 | 260 | 9.6 | 12.2 | 0.00 | 0.00 | 0.00 | 40 | 1014.1 |
| 20260503210807 | 63 | 221 | 7.0 | 7.8 | 0.00 | 0.00 | 0.00 | 41 | 1014.4 |
| 20260503210306 | 63 | 223 | 4.3 | 7.0 | 0.00 | 0.00 | 0.00 | 40 | 1014.1 |
| 20260503205800 | 62 | 234 | 9.6 | 13.9 | 0.00 | 0.00 | 0.00 | 40 | 1014.6 |
| 20260503205257 | 63 | 199 | 8.7 | 8.7 | 0.00 | 0.00 | 0.00 | 39 | 1014.9 |
| 20260503204753 | 63 | 203 | 5.2 | 7.8 | 0.00 | 0.00 | 0.00 | 42 | 1014.7 |
| 20260503204251 | 63 | 233 | 7.8 | 9.6 | 0.00 | 0.00 | 0.00 | 40 | 1014.7 |
| 20260503203749 | 63 | 260 | 7.0 | 11.3 | 0.00 | 0.00 | 0.00 | 41 | 1014.9 |
| 20260503203246 | 62 | 241 | 11.3 | 12.2 | 0.00 | 0.00 | 0.00 | 39 | 1015.0 |
| 20260503202743 | 62 | 174 | 7.0 | 8.7 | 0.00 | 0.00 | 0.00 | 42 | 1015.0 |
| 20260503202241 | 63 | 227 | 6.1 | 7.0 | 0.00 | 0.00 | 0.00 | 41 | 1015.2 |
| 20260503201738 | 62 | 262 | 4.3 | 7.0 | 0.00 | 0.00 | 0.00 | 43 | 1015.2 |
| 20260503201236 | 61 | 227 | 10.4 | 12.2 | 0.00 | 0.00 | 0.00 | 42 | 1015.6 |
| 20260503200732 | 62 | 163 | 5.2 | 12.2 | 0.00 | 0.00 | 0.00 | 43 | 1015.3 |
| 20260503200228 | 63 | 226 | 6.1 | 9.6 | 0.00 | 0.00 | 0.00 | 42 | 1015.6 |
| 20260503195725 | 61 | 215 | 9.6 | 11.3 | 0.00 | 0.00 | 0.00 | 43 | 1016.0 |
| 20260503195222 | 62 | 200 | 5.2 | 7.8 | 0.00 | 0.00 | 0.00 | 46 | 1015.9 |
| 20260503194720 | 61 | 258 | 5.2 | 7.8 | 0.00 | 0.00 | 0.00 | 41 | 1016.0 |
| 20260503194215 | 61 | 241 | 10.4 | 9.6 | 0.00 | 0.00 | 0.00 | 44 | 1016.0 |
| 20260503193712 | 61 | 227 | 7.0 | 11.3 | 0.00 | 0.00 | 0.00 | 42 | 1016.3 |
| 20260503193208 | 61 | 236 | 2.6 | 8.7 | 0.00 | 0.00 | 0.00 | 44 | 1016.5 |
| 20260503192703 | 61 | 255 | 8.7 | 8.7 | 0.00 | 0.00 | 0.00 | 40 | 1016.4 |
| 20260503192159 | 61 | 284 | 7.8 | 12.2 | 0.00 | 0.00 | 0.00 | 43 | 1016.7 |
| 20260503191655 | 61 | 202 | 7.8 | 9.6 | 0.00 | 0.00 | 0.00 | 43 | 1016.5 |
| 20260503191153 | 61 | 244 | 6.1 | 11.3 | 0.00 | 0.00 | 0.00 | 43 | 1016.7 |
| 20260503190650 | 61 | 254 | 5.2 | 7.8 | 0.00 | 0.00 | 0.00 | 43 | 1017.0 |
| 20260503190146 | 60 | 266 | 7.8 | 9.6 | 0.00 | 0.00 | 0.00 | 41 | 1017.0 |
| 20260503185643 | 60 | 217 | 3.5 | 7.0 | 0.00 | 0.00 | 0.00 | 42 | 1016.8 |
| 20260503185138 | 61 | 207 | 7.8 | 8.7 | 0.00 | 0.00 | 0.00 | 41 | 1017.1 |
| 20260503184634 | 60 | 274 | 6.1 | 8.7 | 0.00 | 0.00 | 0.00 | 39 | 1017.1 |
| 20260503184130 | 60 | 228 | 5.2 | 9.6 | 0.00 | 0.00 | 0.00 | 46 | 1017.3 |
| 20260503183627 | 60 | 259 | 7.0 | 7.8 | 0.00 | 0.00 | 0.00 | 40 | 1017.1 |
| 20260503183124 | 60 | 235 | 7.8 | 11.3 | 0.00 | 0.00 | 0.00 | 43 | 1017.5 |
| 20260503182622 | 60 | 267 | 6.1 | 8.7 | 0.00 | 0.00 | 0.00 | 42 | 1017.3 |
| 20260503182120 | 60 | 259 | 7.8 | 9.6 | 0.00 | 0.00 | 0.00 | 42 | 1017.5 |
| 20260503181617 | 60 | 314 | 6.1 | 9.6 | 0.00 | 0.00 | 0.00 | 42 | 1017.5 |
| 20260503181114 | 60 | 273 | 7.0 | 9.6 | 0.00 | 0.00 | 0.00 | 44 | 1017.6 |
| 20260503180611 | 60 | 271 | 2.6 | 4.3 | 0.00 | 0.00 | 0.00 | 46 | 1017.8 |
| 20260503180109 | 59 | 240 | 4.3 | 9.6 | 0.00 | 0.00 | 0.00 | 46 | 1017.6 |
| 20260503175605 | 58 | 298 | 2.6 | 4.3 | 0.00 | 0.00 | 0.00 | 46 | 1017.6 |
| 20260503175102 | 59 | 246 | 12.2 | 13.0 | 0.00 | 0.00 | 0.00 | 40 | 1017.7 |
| 20260503174559 | 59 | 238 | 5.2 | 6.1 | 0.00 | 0.00 | 0.00 | 43 | 1018.1 |
| 20260503174056 | 60 | 235 | 6.1 | 7.8 | 0.00 | 0.00 | 0.00 | 45 | 1018.0 |
| 20260503173551 | 59 | 242 | 6.1 | 7.8 | 0.00 | 0.00 | 0.00 | 41 | 1018.2 |
| 20260503173048 | 59 | 257 | 5.2 | 7.8 | 0.00 | 0.00 | 0.00 | 42 | 1018.2 |
| 20260503172545 | 58 | 241 | 6.1 | 9.6 | 0.00 | 0.00 | 0.00 | 40 | 1018.4 |
| 20260503172042 | 57 | 224 | 6.1 | 8.7 | 0.00 | 0.00 | 0.00 | 40 | 1018.4 |
| 20260503171538 | 58 | 182 | 6.1 | 9.6 | 0.00 | 0.00 | 0.00 | 46 | 1018.6 |
| 20260503171036 | 57 | 231 | 4.3 | 11.3 | 0.00 | 0.00 | 0.00 | 44 | 1018.5 |
| 20260503170532 | 59 | 186 | 6.1 | 7.8 | 0.00 | 0.00 | 0.00 | 42 | 1018.8 |
| 20260503150925 | 55 | 285 | 2.6 | 4.3 | 0.00 | 0.00 | 0.00 | 50 | 1019.5 |
| 20260503150421 | 56 | 280 | 4.3 | 6.1 | 0.00 | 0.00 | 0.00 | 52 | 1019.6 |
| 20260503131314 | 48 | 236 | 5.2 | 6.1 | 0.00 | 0.00 | 0.00 | 69 | 1019.8 |
| 20260503130812 | 47 | 239 | 3.5 | 7.0 | 0.00 | 0.00 | 0.00 | 72 | 1019.9 |
| 20260503130309 | 47 | 209 | 4.3 | 7.8 | 0.00 | 0.00 | 0.00 | 73 | 1019.8 |
| 20260503110703 | 33 | 3 | 0.0 | 0.0 | 0.00 | 0.00 | 0.00 | 99 | 1019.4 |
| 20260503110200 | 33 | 2 | 0.0 | 0.0 | 0.00 | 0.00 | 0.00 | 99 | 1019.2 |
| 20260503100126 | 32 | 343 | 0.0 | 0.0 | 0.00 | 0.00 | 0.00 | 96 | 1018.5 |
| 20260503081516 | 32 | 339 | 0.0 | 0.0 | 0.00 | 0.00 | 0.00 | 98 | 1018.5 |
| 20260503081013 | 32 | 339 | 0.0 | 0.0 | 0.00 | 0.00 | 0.00 | 98 | 1018.4 |
| 20260503080509 | 32 | 339 | 0.0 | 0.0 | 0.00 | 0.00 | 0.00 | 98 | 1018.4 |
| 20260503072443 | 34 | 336 | 0.9 | 0.9 | 0.00 | 0.00 | 0.00 | 95 | 1018.4 |
| 20260503071940 | 34 | 336 | 0.0 | 0.9 | 0.00 | 0.00 | 0.00 | 95 | 1018.3 |
| 20260503071437 | 34 | 336 | 0.9 | 0.9 | 0.00 | 0.00 | 0.00 | 95 | 1018.1 |
| 20260503070933 | 34 | 336 | 0.9 | 0.9 | 0.00 | 0.00 | 0.00 | 94 | 1018.2 |
| 20260503070430 | 34 | 340 | 1.7 | 1.7 | 0.00 | 0.00 | 0.00 | 94 | 1018.1 |
| 20260503054843 | 38 | 4 | 0.0 | 0.9 | 0.00 | 0.00 | 0.00 | 83 | 1018.6 |
| 20260503054339 | 38 | 4 | 0.0 | 0.0 | 0.00 | 0.00 | 0.00 | 83 | 1018.5 |
| 20260503053837 | 37 | 4 | 0.0 | 0.9 | 0.00 | 0.00 | 0.00 | 83 | 1018.4 |
| 20260503053336 | 37 | 4 | 0.0 | 0.0 | 0.00 | 0.00 | 0.00 | 83 | 1018.6 |
| 20260503052831 | 37 | 4 | 0.0 | 0.0 | 0.00 | 0.00 | 0.00 | 84 | 1018.5 |
| 20260503052329 | 37 | 5 | 0.0 | 0.0 | 0.00 | 0.00 | 0.00 | 82 | 1018.3 |